Weather History for KD39 - November, 2013

Change the Weather History Date:

Monday, November 4, 2013

  Actual Average (KGHW) Record (KGHW)
Temperature  
Mean Temperature 38 °F -  
Max Temperature 46 °F 42 °F 68 °F (2008)
Min Temperature 29 °F 25 °F -1 °F (1951)
Degree Days  
Heating Degree Days 28    
Moisture  
Dew Point 32 °F    
Average Humidity 80    
Maximum Humidity 90    
Minimum Humidity 62    
Precipitation  
Precipitation 0.01 in - - ()
Sea Level Pressure  
Sea Level Pressure 29.87 in    
Wind  
Wind Speed 12 mph (SSW)    
Max Wind Speed 21 mph    
Max Gust Speed 25 mph    
Visibility 10 miles    
Events Rain    
Averages and records for this station are not official NWS values.
T = Trace of Precipitation, MM = Missing Value Source: NWS Daily Summary

Daily Weather History Graph

Daily Weather History Graph

Search for Another Location

Airport or City:

Trip Planner

Search our weather history database for the weather conditions in past years. The results will help you decide how hot, cold, wet, or windy it might be!

Date:

Astronomy

Nov. 04, 2013 Rise Set
Actual Time 7:04 AM CST 5:01 PM CST
Civil Twilight 6:32 AM CST 5:32 PM CST
Nautical Twilight 5:57 AM CST 6:08 PM CST
Astronomical Twilight 5:22 AM CST 6:42 PM CST
Moon 8:18 AM CST (11/4) 6:03 PM CST (11/4)
Length of Visible Light 11h 00m
Length of Day
9h 57m
New Moon, 2% of the Moon is Illuminated
Nov 4
New Moon
Nov 9
First Quarter
Nov 17
Full
Nov 25
Last Quarter
Dec 2
New

Hourly Weather History & Observations

Time (CST) Temp. Windchill Dew Point Humidity Pressure Visibility Wind Dir Wind Speed Gust Speed Precip Events Conditions
12:10 AM 46.4 °F 38.7 °F 34.0 °F 62% 29.76 in 10.0 mi SSE 20.7 mph 25.3 mph N/A   Overcast
12:30 AM 46.0 °F 39.0 °F 34.2 °F 63% 29.76 in 10.0 mi SSE 17.3 mph 24.2 mph N/A   Overcast
12:51 AM 46.0 °F 39.3 °F 34.3 °F 64% 29.76 in 10.0 mi SSE 16.1 mph 24.2 mph N/A   Overcast
1:10 AM 45.9 °F 38.8 °F 34.7 °F 65% 29.76 in 10.0 mi SSE 17.3 mph 21.9 mph N/A   Overcast
1:30 AM 45.9 °F 39.1 °F 34.7 °F 65% 29.76 in 10.0 mi SSE 16.1 mph 21.9 mph N/A   Overcast
1:51 AM 45.5 °F 38.9 °F 34.5 °F 65% 29.75 in 10.0 mi SSE 15.0 mph - N/A   Overcast
2:10 AM 43.9 °F 36.5 °F 34.2 °F 69% 29.75 in 10.0 mi SSE 16.1 mph 20.7 mph N/A   Scattered Clouds
2:30 AM 43.7 °F 36.9 °F 34.2 °F 69% 29.75 in 10.0 mi SSE 13.8 mph 25.3 mph N/A   Clear
2:51 AM 43.0 °F 35.4 °F 34.2 °F 71% 29.75 in 10.0 mi SSE 16.1 mph 20.7 mph N/A   Clear
3:10 AM 42.8 °F 36.2 °F 34.2 °F 72% 29.75 in 10.0 mi SSE 12.7 mph - N/A   Clear
3:30 AM 42.6 °F 35.2 °F 34.2 °F 72% 29.75 in 10.0 mi SSE 15.0 mph - N/A   Clear
3:51 AM 42.1 °F 35.2 °F 34.2 °F 74% 29.74 in 10.0 mi SSE 12.7 mph - N/A   Clear
4:10 AM 41.5 °F 34.2 °F 34.3 °F 76% 29.74 in 10.0 mi SSE 13.8 mph - N/A   Clear
4:30 AM 41.4 °F 34.3 °F 34.3 °F 76% 29.75 in 10.0 mi SSE 12.7 mph 19.6 mph N/A   Clear
4:51 AM 41.0 °F 33.9 °F 34.3 °F 77% 29.75 in 10.0 mi SSE 12.7 mph 17.3 mph N/A   Clear
5:10 AM 40.8 °F 33.7 °F 34.5 °F 78% 29.75 in 10.0 mi SSE 12.7 mph - N/A   Clear
5:30 AM 40.3 °F 33.4 °F 34.3 °F 79% 29.75 in 10.0 mi SSE 11.5 mph - N/A   Clear
5:50 AM 39.7 °F 33.2 °F 34.3 °F 81% 29.75 in 10.0 mi SSE 10.4 mph - N/A   Clear
6:10 AM 39.6 °F 33.5 °F 34.3 °F 82% 29.74 in 10.0 mi SSE 9.2 mph - N/A   Scattered Clouds
6:31 AM 39.6 °F 33.0 °F 34.7 °F 83% 29.74 in 10.0 mi SSE 10.4 mph - N/A   Scattered Clouds
6:50 AM 39.4 °F 32.3 °F 34.7 °F 83% 29.73 in 10.0 mi SE 11.5 mph - N/A   Clear
7:10 AM 39.0 °F 32.8 °F 34.7 °F 84% 29.74 in 10.0 mi SSE 9.2 mph - N/A   Clear
7:30 AM 38.7 °F 32.9 °F 34.7 °F 86% 29.75 in 10.0 mi SSE 8.1 mph - N/A   Clear
7:50 AM 39.6 °F 33.5 °F 35.1 °F 84% 29.75 in 10.0 mi SSE 9.2 mph - N/A   Clear
8:10 AM 40.8 °F 35.0 °F 35.6 °F 82% 29.76 in 10.0 mi SSE 9.2 mph - N/A   Clear
8:30 AM 41.4 °F 36.2 °F 36.1 °F 82% 29.77 in 10.0 mi SSE 8.1 mph - N/A   Mostly Cloudy
8:50 AM 41.7 °F 36.7 °F 36.5 °F 82% 29.77 in 10.0 mi SSE 8.1 mph - N/A   Overcast
9:10 AM 42.8 °F 38.0 °F 36.9 °F 80% 29.76 in 10.0 mi South 8.1 mph - N/A   Overcast
9:30 AM 44.1 °F 38.1 °F 37.4 °F 77% 29.77 in 10.0 mi South 11.5 mph - N/A   Overcast
9:50 AM 44.2 °F 38.8 °F 37.8 °F 78% 29.78 in 10.0 mi SSW 10.4 mph - N/A   Overcast
10:10 AM 43.7 °F 39.1 °F 37.4 °F 78% 29.79 in 10.0 mi SW 8.1 mph - N/A   Overcast
10:30 AM 43.2 °F 35.9 °F 36.9 °F 78% 29.81 in 10.0 mi West 15.0 mph 18.4 mph N/A   Light Drizzle
10:50 AM 41.0 °F 33.9 °F 37.9 °F 89% 29.82 in 7.0 mi West 12.7 mph 18.4 mph N/A Rain Rain
11:11 AM 39.2 °F 30.8 °F 36.5 °F 90% 29.83 in 5.0 mi WNW 15.0 mph 20.7 mph 0.01 in Rain Rain
11:30 AM 39.2 °F 30.5 °F 36.3 °F 89% 29.83 in 7.0 mi WNW 16.1 mph 21.9 mph 0.01 in   Light Drizzle
11:50 AM 39.6 °F 31.0 °F 36.7 °F 89% 29.83 in 10.0 mi WNW 16.1 mph - 0.01 in Rain Light Rain
12:11 PM 39.9 °F 31.4 °F 36.7 °F 88% 29.83 in 10.0 mi WNW 16.1 mph - N/A   Light Drizzle
12:30 PM 40.1 °F 33.2 °F 37.0 °F 89% 29.84 in 10.0 mi WNW 11.5 mph - N/A   Overcast
12:50 PM 40.1 °F 32.4 °F 36.7 °F 88% 29.85 in 10.0 mi WNW 13.8 mph 18.4 mph N/A   Overcast
1:11 PM 39.2 °F 32.5 °F 35.6 °F 87% 29.85 in 10.0 mi West 10.4 mph - N/A   Overcast
1:30 PM 38.7 °F 30.9 °F 35.6 °F 89% 29.86 in 10.0 mi West 12.7 mph 17.3 mph N/A   Overcast
1:50 PM 38.8 °F 31.2 °F 34.7 °F 85% 29.88 in 10.0 mi West 12.7 mph 17.3 mph N/A   Overcast
2:11 PM 39.2 °F 32.0 °F 34.0 °F 82% 29.88 in 10.0 mi West 11.5 mph 20.7 mph N/A   Overcast
2:30 PM 39.9 °F 33.4 °F 34.2 °F 80% 29.89 in 10.0 mi West 10.4 mph - N/A   Overcast
2:50 PM 40.1 °F 33.2 °F 33.4 °F 77% 29.90 in 10.0 mi West 11.5 mph 17.3 mph N/A   Mostly Cloudy
3:11 PM 40.5 °F 32.8 °F 32.0 °F 72% 29.90 in 10.0 mi West 13.8 mph - N/A   Overcast
3:30 PM 40.5 °F 33.2 °F 32.0 °F 72% 29.91 in 10.0 mi West 12.7 mph 16.1 mph N/A   Overcast
3:50 PM 41.5 °F 33.8 °F 30.9 °F 66% 29.92 in 10.0 mi West 15.0 mph 20.7 mph N/A   Scattered Clouds
4:11 PM 41.0 °F 32.8 °F 30.0 °F 65% 29.94 in 10.0 mi West 16.1 mph 21.9 mph N/A   Clear
4:30 PM 39.9 °F 32.1 °F 29.5 °F 66% 29.94 in 10.0 mi West 13.8 mph - N/A   Clear
4:50 PM 38.3 °F 32.5 °F 29.8 °F 72% 29.95 in 10.0 mi West 8.1 mph - N/A   Clear
5:10 PM 36.7 °F - 29.3 °F 75% 29.96 in 10.0 mi Calm Calm - N/A   Clear
5:30 PM 36.3 °F 33.7 °F 29.3 °F 76% 29.97 in 10.0 mi WSW 3.5 mph - N/A   Clear
5:51 PM 35.2 °F - 28.8 °F 77% 29.97 in 10.0 mi Calm Calm - N/A   Clear
6:10 PM 32.5 °F 29.3 °F 28.4 °F 85% 29.98 in 10.0 mi WSW 3.5 mph - N/A   Clear
6:30 PM 33.1 °F 28.7 °F 28.0 °F 82% 29.98 in 10.0 mi SW 4.6 mph - N/A   Clear
6:51 PM 31.8 °F 28.5 °F 28.0 °F 86% 29.99 in 10.0 mi SW 3.5 mph - N/A   Clear
7:10 PM 31.6 °F 27.0 °F 28.0 °F 87% 30.00 in 10.0 mi SW 4.6 mph - N/A   Clear
7:30 PM 29.7 °F - 26.8 °F 89% 30.01 in 10.0 mi Calm Calm - N/A   Clear
7:51 PM 29.7 °F 23.7 °F 26.6 °F 88% 30.02 in 10.0 mi SSW 5.8 mph - N/A   Clear
8:10 PM 29.5 °F 25.9 °F 26.4 °F 88% 30.03 in 10.0 mi SW 3.5 mph - N/A   Clear
8:30 PM 30.4 °F 24.5 °F 26.6 °F 86% 30.04 in 10.0 mi SW 5.8 mph - N/A   Clear
8:51 PM 30.6 °F 25.8 °F 26.6 °F 85% 30.05 in 10.0 mi SW 4.6 mph - N/A   Clear
9:10 PM 29.8 °F 26.3 °F 26.4 °F 87% 30.06 in 10.0 mi SW 3.5 mph - N/A   Clear
9:30 PM 30.6 °F - 26.4 °F 85% 30.07 in 10.0 mi Calm Calm - N/A   Clear
9:50 PM 29.1 °F 25.4 °F 26.1 °F 88% 30.08 in 10.0 mi South 3.5 mph - N/A   Clear
10:10 PM 29.1 °F - 26.4 °F 90% 30.09 in 10.0 mi Calm Calm - N/A   Clear
10:30 PM 29.8 °F - 26.4 °F 87% 30.09 in 10.0 mi Calm Calm - N/A   Clear
10:50 PM 30.2 °F 26.7 °F 26.1 °F 85% 30.09 in 10.0 mi SW 3.5 mph - N/A   Clear
11:10 PM 30.0 °F 26.5 °F 25.7 °F 84% 30.10 in 10.0 mi WSW 3.5 mph - N/A   Clear
11:30 PM 30.4 °F 25.6 °F 25.7 °F 83% 30.10 in 10.0 mi WSW 4.6 mph - N/A   Clear
11:50 PM 29.7 °F 23.7 °F 25.7 °F 85% 30.11 in 10.0 mi SW 5.8 mph - N/A   Clear